DELTA 1 DEB, 39097

Orbit data source: Space-Track

DELTA 1 DEB, 39097 is space debris in SSO originally from a launch on Tue, 06 Nov 1973 UTC launched from the Air Force Western Test Range (AFWTR). Debris objects in space refer to the collection of defunct objects orbiting the Earth. Examples of debris include non-operational satellites, rocket bodies, and fragments generated from explosions, collisions, or faulty payload assembly.

Loading next visibility...
Identifier
39097, 1973-086HK
Orbit
SSO
Country
Flag of USUS
Related business
Manufacturer
Unknown
Mission
Spacecraft
Bus & Motor
Unknown
Mass
Unknown
Launch date (UTC)
1973-11-06 (52 years ago)
Launch vehicle
Unknown
Launch site
Air Force Western Test Range (AFWTR)
Object type
Payload
Rocket body
Debris
Shape & HBR
Unknown shape, 0.1 m
Radar Cross Section
Small (<0.1 m²)

Expand to show TLE details & history
Last TLE update: 2 days ago

TLE from 2 days ago
0 DELTA 1 DEB
1 39097U 73086HK  26061.34237176 -.00000024  00000-0  17943-3 0  9994
2 39097 102.3971  87.9354 0031421  93.8777 286.6093 12.33952273591838
Epoch: 2026-03-02T08:13Z
TLE epoch observation values (Epoch: 2026-03-02T08:13:00.920Z)
Latitude
19.65613°
Longitude
160.06326°
Altitude
1,527.424 km
Speed
7.107 km/s
True Right ascension
05h 33m 49s
True Declination
19° 33' 29"
Sunlit
Object was in daylight at epoch
Visualization orbit readout
Latitude
Unknown
Longitude
Unknown
Altitude
Unknown
Speed
Unknown
Apparent Right ascension
Unknown
Apparent Declination
Unknown
Sunlit
N/A
Visualization observer readout
Local Sidereal Time
05:00:29
Azimuth
Unknown
Elevation
Unknown
Doppler factor
Unknown
Orbital elements
Apogee altitude
1,554.799 km
Perigee altitude
1,505.103 km
Semi-major axis
7,908.088 km
Eccentricity
0.00314
Inclination
102.3971°
RAAN
87.9354°
Arg. of periapsis
93.8777°
True anomaly
286.26388°
Mean anomaly
286.6093°
Eccentric anomaly
286.43663°
Mean motion
3.08628 °/min
Orbital period
116.65 mins
BSTAR
0.00017943
Loading maneuver chart data...
Computing Atmospheric mass density...
Loading historical data...
Loading historical data...
Loading historical data...
Loading historical data...
Loading historical data...
Loading historical data...
Loading historical data...

Documentation

Showing up to 5 results
|